Back to catalog

THORAD AGENA D DEB

AliveLEO
NORAD 4968·DEBRIS·🇺🇸 United States

Launched Apr 8, 1970 from Vandenberg Space Force Base

Loading…

Next Passes

TLE

Source: Space-Track
1 04968U 70025GN  26230.02802589  .00000105  00000-0  19668-3 0  9997
2 04968 100.1799 243.1149 0018897 227.2376 189.1621 13.62751624792836

Track THORAD AGENA D DEB in real time with AllMySat

Download on the App Store